Location: Gourdan-Polignan
(43.0709°N, 0.5748°E)
Time: 12:01:38
(UTC+00:00)

Cosmos 44 - Pass Details

Date: 15 May 2026
Orbit: 568 x 782 km, 65.1° (Epoch: 5 June)

Event Time Altitude Azimuth Distance (km) Brightness Sun altitude
Rises 22:32:53 0° 326° (NW) 3,273 8.0 -25.1°
Reaches altitude 10° 22:35:20 10° 327° (NNW) 2,335 7.0 -25.3°
Maximum altitude 22:40:45 85° 56° (ENE) 770 3.4 -25.6°
Enters shadow 22:41:01 80° 117° (ESE) 777 3.3 -25.7°
